Year,Month,Day,Hour,Minute,Value (Times are PST for temperature in C)
2011,08,22,09,11,15.50
2011,08,22,09,12,15.60
2011,08,22,09,13,15.60
2011,08,22,09,14,15.60
2011,08,22,09,15,15.60
2011,08,22,09,16,15.60
2011,08,22,09,17,15.60
2011,08,22,09,18,15.60
2011,08,22,09,19,15.60
2011,08,22,09,20,15.60
2011,08,22,09,21,15.60
2011,08,22,09,22,15.60
2011,08,22,09,23,15.60
2011,08,22,09,24,15.60
2011,08,22,09,25,15.60
2011,08,22,09,26,15.60
2011,08,22,09,59,15.80
2011,08,22,10,00,15.80
2011,08,22,10,01,15.80
2011,08,22,10,02,15.80
2011,08,22,10,03,15.80
2011,08,22,10,04,15.80
2011,08,22,10,05,15.80
2011,08,22,10,06,15.80
2011,08,22,10,07,15.80
2011,08,22,10,08,15.80
2011,08,22,10,09,15.80
2011,08,22,11,33,15.90
2011,08,22,11,34,15.90
2011,08,22,11,35,15.90
2011,08,22,11,36,15.90
2011,08,22,11,37,16.00
2011,08,22,11,38,16.00
2011,08,22,11,39,16.00
2011,08,22,11,40,16.00
2011,08,22,11,41,16.10
2011,08,22,11,42,16.10
2011,08,22,11,43,16.20
2011,08,22,11,44,16.20
2011,08,22,11,45,16.20
2011,08,22,11,46,16.30
2011,08,22,11,47,16.30
2011,08,22,11,48,16.30
2011,08,22,11,49,16.30
2011,08,22,11,50,16.40
2011,08,22,11,51,16.40
2011,08,22,11,52,16.40
2011,08,22,11,53,16.40
2011,08,22,11,54,16.40
2011,08,22,11,55,16.50
2011,08,22,11,56,16.50
2011,08,22,11,57,16.60
2011,08,22,11,58,16.60
2011,08,22,11,59,16.60
2011,08,22,12,00,16.60
2011,08,22,12,01,16.70
2011,08,22,12,02,16.70
2011,08,22,12,03,16.70
2011,08,22,12,04,16.80
2011,08,22,12,05,16.80
2011,08,22,12,06,16.80
2011,08,22,12,07,16.80
2011,08,22,12,08,16.80
2011,08,22,12,09,16.90
2011,08,22,12,10,16.90
2011,08,22,12,11,16.90
2011,08,22,12,12,16.90
2011,08,22,12,13,16.90
2011,08,22,12,14,16.90
2011,08,22,12,15,16.90
2011,08,22,12,16,16.90
2011,08,22,12,17,16.90
2011,08,22,12,18,16.90
2011,08,22,12,19,16.90
2011,08,22,12,20,16.90
2011,08,22,12,21,16.90
2011,08,22,12,22,16.90
2011,08,22,12,23,16.90
2011,08,22,12,24,17.00
2011,08,22,12,25,17.00
2011,08,22,12,26,17.00
2011,08,22,12,27,17.10
2011,08,22,12,28,17.00
2011,08,22,12,29,17.00
2011,08,22,12,30,17.00
2011,08,22,12,31,17.00
2011,08,22,12,32,17.10
2011,08,22,12,33,17.10
2011,08,22,12,34,17.10
2011,08,22,12,35,17.10
2011,08,22,12,36,17.10
2011,08,22,12,37,17.10
2011,08,22,12,38,17.10
2011,08,22,12,39,17.10
2011,08,22,12,40,17.10
2011,08,22,12,41,17.10
2011,08,22,12,42,17.10
2011,08,22,12,43,17.10
2011,08,22,12,44,17.10
2011,08,22,12,45,17.00
2011,08,22,12,46,17.00
2011,08,22,12,47,17.00
2011,08,22,12,48,17.00
2011,08,22,12,49,16.90
2011,08,22,12,50,16.90
2011,08,22,12,51,16.90
2011,08,22,12,52,16.90
2011,08,22,12,53,16.90
2011,08,22,12,54,16.90
2011,08,22,12,55,17.00
2011,08,22,12,56,17.00
2011,08,22,12,57,17.00
2011,08,22,12,58,17.00
2011,08,22,12,59,17.00
2011,08,22,13,00,17.10
2011,08,22,13,01,17.10
2011,08,22,13,02,17.10
2011,08,22,13,03,17.10
2011,08,22,13,04,17.10
2011,08,22,13,05,17.10
2011,08,22,13,06,17.10
2011,08,22,13,07,17.20
2011,08,22,13,08,17.20
2011,08,22,13,09,17.30
2011,08,22,13,10,17.30
2011,08,22,13,11,17.30
2011,08,22,13,12,17.40
2011,08,22,13,13,17.40
2011,08,22,13,14,17.40
2011,08,22,13,15,17.40
2011,08,22,13,16,17.50
2011,08,22,13,17,17.50
2011,08,22,13,18,17.50
2011,08,22,13,19,17.50
2011,08,22,13,20,17.50
2011,08,22,13,21,17.50
2011,08,22,13,22,17.60
2011,08,22,13,23,17.60
2011,08,22,13,24,17.60
2011,08,22,13,25,17.50
2011,08,22,13,26,17.50
2011,08,22,13,27,17.50
2011,08,22,13,28,17.40
2011,08,22,13,29,17.40
2011,08,22,13,30,17.40
2011,08,22,13,31,17.40
2011,08,22,13,32,17.40
2011,08,22,13,33,17.40
2011,08,22,13,34,17.40
2011,08,22,13,35,17.40
2011,08,22,13,36,17.40
2011,08,22,13,37,17.30
2011,08,22,13,38,17.30
2011,08,22,13,39,17.30
2011,08,22,13,40,17.30
2011,08,22,13,41,17.30
2011,08,22,13,42,17.30
2011,08,22,13,43,17.30
2011,08,22,13,44,17.30
2011,08,22,13,45,17.30
2011,08,22,13,46,17.30
2011,08,22,13,47,17.30
2011,08,22,13,48,17.20
2011,08,22,13,49,17.20
2011,08,22,13,50,17.20
2011,08,22,13,51,17.20
2011,08,22,13,52,17.20
2011,08,22,13,53,17.10
2011,08,22,13,54,17.10
2011,08,22,13,55,17.10
2011,08,22,13,56,17.10
2011,08,22,13,57,17.10
2011,08,22,13,58,17.10
2011,08,22,13,59,17.10
2011,08,22,14,00,17.10
2011,08,22,14,01,17.10
2011,08,22,14,02,17.10
2011,08,22,14,03,17.10
2011,08,22,14,04,17.10
2011,08,22,14,05,17.10
2011,08,22,14,06,17.10
2011,08,22,14,07,17.10
2011,08,22,14,08,17.10
2011,08,22,14,09,17.20
2011,08,22,14,10,17.20
2011,08,22,14,11,17.30
2011,08,22,14,12,17.30
2011,08,22,14,13,17.30
2011,08,22,14,14,17.30
2011,08,22,14,15,17.30
2011,08,22,14,16,17.30
2011,08,22,14,17,17.30
2011,08,22,14,18,17.30
2011,08,22,14,19,17.30
2011,08,22,14,20,17.30
2011,08,22,14,21,17.30
2011,08,22,14,22,17.30
2011,08,22,14,23,17.40
2011,08,22,14,24,17.40
2011,08,22,14,25,17.40
2011,08,22,14,26,17.40
2011,08,22,14,27,17.40
2011,08,22,14,28,17.30
2011,08,22,14,29,17.40
2011,08,22,14,30,17.40
2011,08,22,14,31,17.40
2011,08,22,14,32,17.40
2011,08,22,14,33,17.40
2011,08,22,14,34,17.40
2011,08,22,14,35,17.40
2011,08,22,14,36,17.40
2011,08,22,14,37,17.40
2011,08,22,14,38,17.40
2011,08,22,14,39,17.40
2011,08,22,14,40,17.40
2011,08,22,14,41,17.40
2011,08,22,14,42,17.40
2011,08,22,14,43,17.40
2011,08,22,14,44,17.40
2011,08,22,14,45,17.40
2011,08,22,14,46,17.40
2011,08,22,14,47,17.50
2011,08,22,14,48,17.50
2011,08,22,14,49,17.50
2011,08,22,14,50,17.50
2011,08,22,14,51,17.50
2011,08,22,14,52,17.50
2011,08,22,14,53,17.50
2011,08,22,14,54,17.50
2011,08,22,14,55,17.50
2011,08,22,14,56,17.50
2011,08,22,14,57,17.50
2011,08,22,14,58,17.60
2011,08,22,14,59,17.60
2011,08,22,15,00,17.70
2011,08,22,15,01,17.70
2011,08,22,15,02,17.70
2011,08,22,15,03,17.70
2011,08,22,15,04,17.70
2011,08,22,15,05,17.70
2011,08,22,15,06,17.80
2011,08,22,15,07,17.80
2011,08,22,15,08,17.80
2011,08,22,15,09,17.80
2011,08,22,15,10,17.80
2011,08,22,15,11,17.80
2011,08,22,15,12,17.80
2011,08,22,15,13,17.80
2011,08,22,15,14,17.90
2011,08,22,15,15,17.90
2011,08,22,15,16,17.90
2011,08,22,15,17,17.90
2011,08,22,15,18,17.90
2011,08,22,15,19,18.00
2011,08,22,15,20,18.00
2011,08,22,15,21,18.00
2011,08,22,15,22,18.10
2011,08,22,15,23,18.10
2011,08,22,15,24,18.10
2011,08,22,15,25,18.10
2011,08,22,15,26,18.10
2011,08,22,15,27,18.10
2011,08,22,15,28,18.20
2011,08,22,15,29,18.20
2011,08,22,15,30,18.20
2011,08,22,15,31,18.20
2011,08,22,15,32,18.20
2011,08,22,15,33,18.20
2011,08,22,15,34,18.30
2011,08,22,15,35,18.30
2011,08,22,15,36,18.20
2011,08,22,15,37,18.20
2011,08,22,15,38,18.20
2011,08,22,15,39,18.20
2011,08,22,15,40,18.20
2011,08,22,15,41,18.20
2011,08,22,15,42,18.20
2011,08,22,15,43,18.20
2011,08,22,15,44,18.20
2011,08,22,15,45,18.20
2011,08,22,15,46,18.20
2011,08,22,15,47,18.30
2011,08,22,15,48,18.30
2011,08,22,15,49,18.30
2011,08,22,15,50,18.30
2011,08,22,15,51,18.30
2011,08,22,15,52,18.40
2011,08,22,15,53,18.40
2011,08,22,15,54,18.40
2011,08,22,15,55,18.50
2011,08,22,15,56,18.50
2011,08,22,15,57,18.50
2011,08,22,15,58,18.50
2011,08,22,15,59,18.60
2011,08,22,16,00,18.60
2011,08,22,16,01,18.60
2011,08,22,16,02,18.60
2011,08,22,16,03,18.60
2011,08,22,16,04,18.60
2011,08,22,16,05,18.60
2011,08,22,16,06,18.60
2011,08,22,16,07,18.60
2011,08,22,16,08,18.60
2011,08,22,16,09,18.60
2011,08,22,16,10,18.60
2011,08,22,16,11,18.60
2011,08,22,16,12,18.60
2011,08,22,16,13,18.60
2011,08,22,16,14,18.60
2011,08,22,16,15,18.60
2011,08,22,16,16,18.60
2011,08,22,16,17,18.60
2011,08,22,16,18,18.70
2011,08,22,16,19,18.70
2011,08,22,16,20,18.70
2011,08,22,16,21,18.70
2011,08,22,16,22,18.70
2011,08,22,16,23,18.80
2011,08,22,16,24,18.80
2011,08,22,16,25,18.80
2011,08,22,16,26,18.80
2011,08,22,16,27,18.80
2011,08,22,16,28,18.80
2011,08,22,16,29,18.80
2011,08,22,16,30,18.80
2011,08,22,16,31,18.80
2011,08,22,16,32,18.80
2011,08,22,16,33,18.80
2011,08,22,16,34,18.80
2011,08,22,16,35,18.80
2011,08,22,16,36,18.90
2011,08,22,16,37,18.90
2011,08,22,16,38,18.90
2011,08,22,16,39,18.90
2011,08,22,16,40,18.90
2011,08,22,16,41,18.90
2011,08,22,16,42,18.90
2011,08,22,16,43,19.00
2011,08,22,16,44,19.00
2011,08,22,16,45,19.00
2011,08,22,16,46,19.00
2011,08,22,16,47,19.10
2011,08,22,16,48,19.10
2011,08,22,16,49,19.10
2011,08,22,16,50,19.20
2011,08,22,16,51,19.20
2011,08,22,16,52,19.20
2011,08,22,16,53,19.20
2011,08,22,16,54,19.20
2011,08,22,16,55,19.30
2011,08,22,16,56,19.30
2011,08,22,16,57,19.30
2011,08,22,16,58,19.30
2011,08,22,16,59,19.30
2011,08,22,17,00,19.30
2011,08,22,17,01,19.30
2011,08,22,17,02,19.30
2011,08,22,17,03,19.30
2011,08,22,17,04,19.30
2011,08,22,17,05,19.30
2011,08,22,17,06,19.20
2011,08,22,17,07,19.20
2011,08,22,17,08,19.10
2011,08,22,17,09,19.10
2011,08,22,17,10,19.10
2011,08,22,17,11,19.10
2011,08,22,17,12,19.00
2011,08,22,17,13,19.00
2011,08,22,17,14,18.90
2011,08,22,17,15,18.90
2011,08,22,17,16,18.80
2011,08,22,17,17,18.80
2011,08,22,17,18,18.70
2011,08,22,17,19,18.70
2011,08,22,17,20,18.70
2011,08,22,17,21,18.70
2011,08,22,17,22,18.70
2011,08,22,17,23,18.70
2011,08,22,17,24,18.70
2011,08,22,17,25,18.70
2011,08,22,17,26,18.60
2011,08,22,17,27,18.60
2011,08,22,17,28,18.60
2011,08,22,17,29,18.50
2011,08,22,17,30,18.50
2011,08,22,17,31,18.50
2011,08,22,17,32,18.50
2011,08,22,17,33,18.50
2011,08,22,17,34,18.60
2011,08,22,17,35,18.60
2011,08,22,17,36,18.60
2011,08,22,17,37,18.60
2011,08,22,17,38,18.60
2011,08,22,17,39,18.60
2011,08,22,17,40,18.60
2011,08,22,17,41,18.60
2011,08,22,17,42,18.60
2011,08,22,17,43,18.60
2011,08,22,17,44,18.60
2011,08,22,17,45,18.70
2011,08,22,17,46,18.60
2011,08,22,17,47,18.60
2011,08,22,17,48,18.60
2011,08,22,17,49,18.60
2011,08,22,17,50,18.60
2011,08,22,17,51,18.60
2011,08,22,17,52,18.60
2011,08,22,17,53,18.60
2011,08,22,17,54,18.60
2011,08,22,17,55,18.60
2011,08,22,17,56,18.60
2011,08,22,17,57,18.60
2011,08,22,17,58,18.70
2011,08,22,17,59,18.70
2011,08,22,18,00,18.70
2011,08,22,18,01,18.70
2011,08,22,18,02,18.70
2011,08,22,18,03,18.70
2011,08,22,18,04,18.80
2011,08,22,18,05,18.80
2011,08,22,18,06,18.80
2011,08,22,18,07,18.80
2011,08,22,18,08,18.90
2011,08,22,18,09,18.90
2011,08,22,18,10,18.90
2011,08,22,18,11,18.90
2011,08,22,18,12,18.90
2011,08,22,18,13,18.90
2011,08,22,18,14,18.90
2011,08,22,18,15,18.90
2011,08,22,18,16,18.90
2011,08,22,18,17,18.90
2011,08,22,18,18,18.90
2011,08,22,18,19,18.90
2011,08,22,18,20,18.80
2011,08,22,18,21,18.80
2011,08,22,18,22,18.70
2011,08,22,18,23,18.70
2011,08,22,18,24,18.70
2011,08,22,18,25,18.70
2011,08,22,18,26,18.70
2011,08,22,18,27,18.70
2011,08,22,18,28,18.70
2011,08,22,18,29,18.60
2011,08,22,18,30,18.60
2011,08,22,18,31,18.60
2011,08,22,18,32,18.60
2011,08,22,18,33,18.60
2011,08,22,18,34,18.60
2011,08,22,18,35,18.60
2011,08,22,18,36,18.60
2011,08,22,18,37,18.60
2011,08,22,18,38,18.60
2011,08,22,18,39,18.60
2011,08,22,18,40,18.60
2011,08,22,18,41,18.60
2011,08,22,18,42,18.60
2011,08,22,18,43,18.60
2011,08,22,18,44,18.60
2011,08,22,18,45,18.60
2011,08,22,18,46,18.60
2011,08,22,18,47,18.60
2011,08,22,18,48,18.60
2011,08,22,18,49,18.60
2011,08,22,18,50,18.60
2011,08,22,18,51,18.50
2011,08,22,18,52,18.50
2011,08,22,18,53,18.50
2011,08,22,18,54,18.50
2011,08,22,18,55,18.50
2011,08,22,18,56,18.50
2011,08,22,18,57,18.50
2011,08,22,18,58,18.50
2011,08,22,18,59,18.50
2011,08,22,19,00,18.50
2011,08,22,19,01,18.50
